FW2982 Weather Reports


time (UTC)temp
C
wind
direction
speed
KPH
gust
KPH
rain 1hr
cm
rain 24hr
cm
rain mn
cm
humidity
%
barometer
mb
20260902124620 26 24 0.0 3.2 0.00 0.00 0.00 83 1016.0
20260902124121 26 21 0.0 3.2 0.00 0.00 0.00 86 1015.9
20260902123647 25 252 1.6 3.2 0.00 0.00 0.00 89 1015.8
20260902123637 25 276 0.0 3.2 0.00 0.00 0.00 87 1015.9
20260902122620 25 252 0.0 3.2 0.00 0.00 0.00 92 1015.9
20260902122120 24 251 1.6 3.2 0.00 0.00 0.00 93 1015.8
20260902121619 24 252 0.0 0.0 0.00 0.00 0.00 95 1015.9
20260902121119 23 252 0.0 0.0 0.00 0.00 0.00 95 1016.0
20260902120619 23 252 0.0 0.0 0.00 0.00 0.00 96 1015.9
20260902120121 22 252 0.0 0.0 0.00 0.00 0.00 96 1015.9
20260902115619 22 252 0.0 0.0 0.00 0.00 0.00 96 1016.0
20260902115119 22 251 0.0 0.0 0.00 0.00 0.00 96 1015.8
20260902114857 22 251 0.0 0.0 0.00 0.00 0.00 96 1015.7
20260902114118 22 251 0.0 0.0 0.00 0.00 0.00 96 1015.7
20260902113618 22 251 0.0 0.0 0.00 0.00 0.00 96 1015.6
20260902113118 22 251 0.0 0.0 0.00 0.00 0.00 96 1015.7
20260902112618 21 251 0.0 0.0 0.00 0.00 0.00 96 1015.5
20260902112118 22 251 0.0 0.0 0.00 0.00 0.00 96 1015.5
20260902111618 22 251 0.0 0.0 0.00 0.00 0.00 96 1015.6
20260902111118 22 251 0.0 0.0 0.00 0.00 0.00 96 1015.7
20260902110618 22 251 0.0 0.0 0.00 0.00 0.00 96 1015.8
20260902110119 22 251 0.0 0.0 0.00 0.00 0.00 96 1015.7
20260902105617 21 251 0.0 0.0 0.00 0.00 0.00 95 1015.6
20260902105355 21 251 0.0 0.0 0.00 0.00 0.00 95 1015.7
20260902104618 21 251 0.0 0.0 0.00 0.00 0.00 95 1015.8
20260902104107 21 251 0.0 0.0 0.00 0.00 0.00 95 1015.8
20260902103606 21 251 0.0 0.0 0.00 0.00 0.00 95 1015.7
20260902103104 21 251 0.0 0.0 0.00 0.00 0.00 95 1015.7
20260902102603 21 252 0.0 0.0 0.00 0.00 0.00 95 1015.7
20260902102105 22 251 0.0 0.0 0.00 0.00 0.00 95 1015.7
20260902101603 22 252 0.0 0.0 0.00 0.00 0.00 95 1015.7
20260902101104 22 251 0.0 0.0 0.00 0.00 0.00 95 1015.6
20260902100840 22 251 0.0 0.0 0.00 0.00 0.00 95 1015.5
20260902095601 22 251 0.0 0.0 0.00 0.00 0.00 95 1015.5
20260902095103 22 251 0.0 0.0 0.00 0.00 0.00 95 1015.4
20260902094843 22 251 0.0 0.0 0.00 0.00 0.00 95 1015.4
20260902094102 22 251 0.0 0.0 0.00 0.00 0.00 95 1015.4
20260902093602 22 251 0.0 0.0 0.00 0.00 0.00 95 1015.3
20260902093103 22 251 0.0 0.0 0.00 0.00 0.00 95 1015.4
20260902092602 22 251 0.0 0.0 0.00 0.00 0.00 95 1015.4
20260902092102 22 251 0.0 0.0 0.00 0.00 0.00 95 1015.5
20260902091602 22 252 0.0 0.0 0.00 0.00 0.00 95 1015.4
20260902091102 22 251 0.0 0.0 0.00 0.00 0.00 95 1015.5
20260902090603 22 251 0.0 0.0 0.00 0.00 0.00 95 1015.4
20260902090034 22 251 0.0 0.0 0.00 0.00 0.00 95 1015.4
20260902085532 22 251 0.0 0.0 0.00 0.00 0.00 95 1015.3
20260902085031 22 252 0.0 0.0 0.00 0.00 0.00 95 1015.4
20260902084523 22 251 0.0 0.0 0.00 0.00 0.00 95 1015.3
20260902084018 22 251 0.0 0.0 0.00 0.00 0.00 95 1015.3
20260902083519 22 251 0.0 0.0 0.00 0.00 0.00 95 1015.3
20260902083015 22 251 0.0 0.0 0.00 0.00 0.00 95 1015.3
20260902082515 22 251 0.0 0.0 0.00 0.00 0.00 94 1015.4
20260902082016 22 251 0.0 0.0 0.00 0.00 0.00 94 1015.3
20260902081514 22 251 0.0 0.0 0.00 0.00 0.00 94 1015.3
20260902081014 22 251 0.0 0.0 0.00 0.00 0.00 94 1015.2
20260902080514 22 251 0.0 0.0 0.00 0.00 0.00 94 1015.2
20260902080014 22 251 0.0 0.0 0.00 0.00 0.00 94 1015.0
20260902075515 22 251 0.0 0.0 0.00 0.00 0.00 94 1015.1
20260902075252 22 251 0.0 0.0 0.00 0.00 0.00 94 1015.0
20260902074753 22 251 0.0 0.0 0.00 0.00 0.00 94 1015.0
20260902074014 22 251 0.0 0.0 0.00 0.00 0.00 94 1015.1
20260902073513 22 252 0.0 0.0 0.00 0.00 0.00 94 1015.0
20260902073014 22 251 0.0 0.0 0.00 0.00 0.00 94 1015.0
20260902072504 22 251 0.0 0.0 0.00 0.00 0.00 94 1015.1
20260902072003 22 251 0.0 0.0 0.00 0.00 0.00 94 1015.0
20260902071503 22 251 0.0 0.0 0.00 0.00 0.00 94 1014.9
20260902070933 22 251 0.0 0.0 0.00 0.00 0.00 94 1014.9
20260902070433 22 251 0.0 0.0 0.00 0.00 0.00 94 1014.9
20260902065933 22 251 0.0 0.0 0.00 0.00 0.00 94 1014.8
20260902065431 22 251 0.0 0.0 0.00 0.00 0.00 94 1014.9
20260902064931 22 252 0.0 0.0 0.00 0.00 0.00 94 1014.9
20260902064431 22 251 0.0 0.0 0.00 0.00 0.00 94 1014.8
20260902063933 22 251 0.0 0.0 0.00 0.00 0.00 94 1014.7
20260902063717 22 251 0.0 0.0 0.00 0.00 0.00 93 1014.8
20260902062931 23 251 0.0 0.0 0.00 0.00 0.00 94 1014.9
20260902062432 23 251 0.0 1.6 0.00 0.00 0.00 93 1014.9
20260902062238 23 251 0.0 0.0 0.00 0.00 0.00 93 1014.8
20260902061949 23 251 0.0 1.6 0.00 0.00 0.00 93 1014.8
20260902060912 23 251 0.0 0.0 0.00 0.00 0.00 94 1014.9
20260902060412 23 251 0.0 0.0 0.00 0.00 0.00 94 1014.8
20260902055912 23 251 0.0 1.6 0.00 0.00 0.00 94 1014.8
20260902055411 23 251 0.0 1.6 0.00 0.00 0.00 94 1014.9
20260902055153 23 251 0.0 1.6 0.00 0.00 0.00 93 1014.9
20260902054411 23 251 0.0 3.2 0.00 0.00 0.00 93 1014.9
20260902053912 23 251 1.6 3.2 0.00 0.00 0.00 93 1014.7
20260902053412 23 264 0.0 3.2 0.00 0.00 0.00 94 1014.8
20260902052911 23 264 0.0 4.8 0.00 0.00 0.00 93 1014.9
20260902052404 23 264 1.6 4.8 0.00 0.00 0.00 93 1014.9
20260902051903 23 262 0.0 0.0 0.00 0.00 0.00 93 1014.7
20260902051403 23 262 0.0 0.0 0.00 0.00 0.00 93 1014.7
20260902050901 23 262 0.0 0.0 0.00 0.00 0.00 93 1014.7
20260902050404 23 262 0.0 0.0 0.00 0.00 0.00 93 1014.7
20260902045904 23 262 0.0 0.0 0.00 0.00 0.00 93 1014.7
20260902045401 23 262 0.0 0.0 0.00 0.00 0.00 93 1014.6
20260902045144 23 262 0.0 0.0 0.00 0.00 0.00 93 1014.6
20260902044402 23 262 0.0 0.0 0.00 0.00 0.00 93 1014.5
20260902044138 23 262 0.0 0.0 0.00 0.00 0.00 93 1014.5
20260902043359 23 262 0.0 0.0 0.00 0.00 0.00 93 1014.4
20260902042858 23 262 0.0 0.0 0.00 0.00 0.00 93 1014.4
20260902042345 23 262 0.0 0.0 0.00 0.00 0.00 93 1014.3
20260902041845 23 262 0.0 0.0 0.00 0.00 0.00 93 1014.2
20260902041343 23 262 0.0 0.0 0.00 0.00 0.00 93 1014.2
20260902040844 23 262 0.0 0.0 0.00 0.00 0.00 92 1014.1
20260902040342 24 262 0.0 0.0 0.00 0.00 0.00 92 1014.1
20260902035839 24 262 0.0 0.0 0.00 0.00 0.00 92 1014.0
20260902035339 24 262 0.0 0.0 0.00 0.00 0.00 92 1014.0
20260902034838 24 262 0.0 0.0 0.00 0.00 0.00 92 1014.0
20260902034339 24 262 0.0 0.0 0.00 0.00 0.00 91 1014.0
20260902033831 24 262 0.0 0.0 0.00 0.00 0.00 91 1013.9
20260902033333 24 262 0.0 0.0 0.00 0.00 0.00 91 1013.9
20260902032831 25 262 0.0 0.0 0.00 0.00 0.00 91 1013.7
20260902032330 25 262 0.0 0.0 0.00 0.00 0.00 90 1013.7
20260902031817 25 262 0.0 0.0 0.00 0.00 0.00 90 1013.6
20260902031316 25 262 0.0 0.0 0.00 0.00 0.00 90 1013.5
20260902030812 25 262 0.0 0.0 0.00 0.00 0.00 90 1013.5
20260902030310 25 262 0.0 0.0 0.00 0.00 0.00 90 1013.3
20260902025807 25 262 0.0 0.0 0.00 0.00 0.00 89 1013.3
20260902025307 25 262 0.0 0.0 0.00 0.00 0.00 89 1013.3
20260902025048 25 262 0.0 0.0 0.00 0.00 0.00 88 1013.3
20260902024548 25 262 0.0 0.0 0.00 0.00 0.00 88 1013.4
20260902023809 25 262 0.0 0.0 0.00 0.00 0.00 87 1013.5
20260902023307 26 262 0.0 0.0 0.00 0.00 0.00 88 1013.6
20260902022808 26 262 0.0 0.0 0.00 0.00 0.00 86 1013.6
20260902022327 26 262 0.0 0.0 0.00 0.00 0.00 84 1013.8
20260902022319 26 262 0.0 0.0 0.00 0.00 0.00 84 1013.7
20260902021309 26 262 0.0 1.6 0.00 0.00 0.00 86 1013.8
20260902020807 26 262 0.0 1.6 0.00 0.00 0.00 88 1013.6
20260902020307 26 262 0.0 1.6 0.00 0.00 0.00 87 1013.6
20260902020045 26 262 0.0 1.6 0.00 0.00 0.00 87 1013.4
20260902015307 26 258 0.0 1.6 0.00 0.00 0.00 88 1013.4
20260902014806 26 258 0.0 3.2 0.00 0.00 0.00 89 1013.3
20260902014305 26 258 1.6 3.2 0.00 0.00 0.00 90 1013.3
20260902013807 26 258 0.0 0.0 0.00 0.00 0.00 89 1013.3
20260902013546 26 258 0.0 0.0 0.00 0.00 0.00 89 1013.3
20260902012805 26 258 0.0 0.0 0.00 0.00 0.00 89 1013.3
20260902012309 26 258 0.0 0.0 0.00 0.00 0.00 89 1013.3
20260902011805 26 258 0.0 0.0 0.00 0.00 0.00 89 1013.3
20260902011306 26 258 0.0 0.0 0.00 0.00 0.00 89 1013.2
20260902011044 26 258 0.0 1.6 0.00 0.00 0.00 88 1013.1
20260902010303 26 258 0.0 1.6 0.00 0.00 0.00 89 1013.1
20260902005805 26 258 0.0 0.0 0.00 0.00 0.00 89 1012.9
20260902005306 26 258 0.0 0.0 0.00 0.00 0.00 90 1012.8
20260902004804 26 258 0.0 0.0 0.00 0.00 0.00 89 1012.9
20260902004305 27 258 0.0 0.0 0.00 0.00 0.00 89 1012.7
20260902003804 27 258 0.0 0.0 0.00 0.00 0.00 89 1012.5
20260902003544 27 258 0.0 0.0 0.00 0.00 0.00 88 1012.5
20260902002803 27 258 0.0 0.0 0.00 0.00 0.00 87 1012.4
20260902002306 27 258 0.0 0.0 0.00 0.00 0.00 84 1012.3
20260902001804 28 258 0.0 0.0 0.00 0.00 0.00 83 1012.1
20260902001303 28 258 0.0 0.0 0.00 0.00 0.00 82 1011.9
20260902000803 28 258 0.0 1.6 0.00 0.00 0.00 82 1011.9
20260902000304 28 258 0.0 1.6 0.00 0.00 0.00 83 1011.9
20260901235804 28 258 0.0 0.0 0.00 0.00 0.00 83 1011.8
20260901235543 28 258 0.0 0.0 0.00 0.00 0.00 83 1011.8
20260901234803 28 258 0.0 1.6 0.00 0.00 0.00 84 1011.8
20260901234303 28 258 0.0 1.6 0.00 0.00 0.00 84 1011.8
20260901233803 28 258 0.0 1.6 0.00 0.00 0.00 84 1011.8
20260901233303 28 258 0.0 0.0 0.00 0.00 0.00 83 1011.8
20260901232804 29 258 0.0 0.0 0.00 0.00 0.00 83 1012.0
20260901232306 29 258 0.0 0.0 0.00 0.00 0.00 82 1012.0
20260901231804 29 258 0.0 0.0 0.00 0.00 0.00 81 1012.0
20260901231303 29 258 0.0 0.0 0.00 0.00 0.00 80 1012.0
20260901231042 29 258 0.0 0.0 0.00 0.00 0.00 80 1011.9
20260901230304 30 258 0.0 0.0 0.00 0.00 0.00 80 1012.0
20260901225739 30 258 0.0 0.0 0.00 0.00 0.00 79 1012.1
20260901225238 30 258 0.0 0.0 0.00 0.00 0.00 78 1012.1
20260901224739 30 258 0.0 0.0 0.00 0.00 0.00 78 1012.1
20260901224237 30 258 0.0 0.0 0.00 0.00 0.00 77 1012.1
20260901223734 30 258 0.0 0.0 0.00 0.00 0.00 77 1012.0
20260901223234 30 258 0.0 1.6 0.00 0.00 0.00 76 1012.0
20260901222732 30 258 0.0 3.2 0.00 0.00 0.00 75 1012.0
20260901222233 30 258 0.0 3.2 0.00 0.00 0.00 73 1012.1
20260901221732 30 258 0.0 3.2 0.00 0.00 0.00 73 1012.1
20260901221233 30 282 0.0 0.0 0.00 0.00 0.00 74 1012.1
20260901220731 31 282 0.0 0.0 0.00 0.00 0.00 73 1012.0
20260901220232 31 282 0.0 1.6 0.00 0.00 0.00 72 1012.1
20260901215732 31 282 0.0 1.6 0.00 0.00 0.00 72 1012.1
20260901215233 31 282 0.0 0.0 0.00 0.00 0.00 71 1012.4
20260901215014 31 282 0.0 1.6 0.00 0.00 0.00 69 1012.4
20260901214505 32 282 0.0 3.2 0.00 0.00 0.00 70 1012.4
20260901213726 32 282 1.6 3.2 0.00 0.00 0.00 68 1012.3
20260901213227 32 224 0.0 1.6 0.00 0.00 0.00 68 1012.3
20260901212727 32 224 0.0 1.6 0.00 0.00 0.00 65 1012.4
20260901212504 33 282 0.0 3.2 0.00 0.00 0.00 65 1012.4
20260901211722 33 282 0.0 3.2 0.00 0.00 0.00 66 1012.4
20260901211222 33 285 0.0 1.6 0.00 0.00 0.00 66 1012.3
20260901210723 33 272 0.0 3.2 0.00 0.00 0.00 64 1012.3
20260901210447 33 268 1.6 3.2 0.00 0.00 0.00 63 1012.4
20260901205945 33 247 0.0 4.8 0.00 0.00 0.00 63 1012.4
20260901205208 33 247 0.0 4.8 0.00 0.00 0.00 63 1012.4
20260901204947 33 289 0.0 1.6 0.00 0.00 0.00 67 1012.5
20260901204206 33 289 0.0 4.8 0.00 0.00 0.00 63 1012.5
20260901203705 33 289 0.0 4.8 0.00 0.00 0.00 63 1012.4
20260901203202 33 285 0.0 4.8 0.00 0.00 0.00 62 1012.6
20260901202943 33 285 0.0 4.8 0.00 0.00 0.00 62 1012.6
20260901202204 33 355 1.6 3.2 0.00 0.00 0.00 63 1012.6
20260901201942 33 6 0.0 3.2 0.00 0.00 0.00 65 1012.6
20260901201441 33 234 0.0 4.8 0.00 0.00 0.00 65 1012.7
20260901200702 32 234 0.0 4.8 0.00 0.00 0.00 66 1012.8
20260901200202 32 278 0.0 0.0 0.00 0.00 0.00 68 1012.9
20260901195704 32 278 0.0 3.2 0.00 0.00 0.00 65 1012.9
20260901195203 33 278 0.0 3.2 0.00 0.00 0.00 64 1013.0
20260901194702 33 24 1.6 9.7 0.00 0.00 0.00 62 1013.0
20260901194159 33 314 1.6 9.7 0.00 0.00 0.00 64 1013.1
20260901193657 33 319 1.6 3.2 0.00 0.00 0.00 70 1013.2
20260901193158 33 321 0.0 3.2 0.00 0.00 0.00 69 1013.2
20260901192657 32 268 0.0 1.6 0.00 0.00 0.00 70 1013.3
20260901192132 32 268 0.0 1.6 0.00 0.00 0.00 71 1013.3
20260901191630 32 268 0.0 3.2 0.00 0.00 0.00 71 1013.4
20260901191131 32 268 0.0 3.2 0.00 0.00 0.00 70 1013.6
20260901190632 32 288 0.0 6.4 0.00 0.00 0.00 67 1013.6
20260901190132 33 285 1.6 6.4 0.00 0.00 0.00 65 1013.8
20260901185632 33 302 1.6 4.8 0.00 0.00 0.00 63 1013.9
20260901185132 33 258 0.0 4.8 0.00 0.00 0.00 61 1013.9
20260901184631 34 258 1.6 4.8 0.00 0.00 0.00 60 1013.9
20260901184131 35 292 1.6 8.0 0.00 0.00 0.00 58 1013.8
20260901183631 35 279 3.2 8.0 0.00 0.00 0.00 59 1013.9
20260901183132 35 0 1.6 6.4 0.00 0.00 0.00 58 1013.7
20260901182632 35 28 3.2 6.4 0.00 0.00 0.00 60 1013.8
20260901182131 35 357 0.0 4.8 0.00 0.00 0.00 59 1013.7
20260901181633 35 254 3.2 4.8 0.00 0.00 0.00 59 1013.5
20260901181131 34 336 1.6 4.8 0.00 0.00 0.00 58 1013.6
20260901180630 35 302 1.6 4.8 0.00 0.00 0.00 57 1013.7
20260901180131 34 182 3.2 4.8 0.00 0.00 0.00 58 1013.7
20260901175631 35 78 1.6 4.8 0.00 0.00 0.00 58 1013.7
20260901175132 35 247 3.2 4.8 0.00 0.00 0.00 57 1013.7
20260901174938 34 227 1.6 8.0 0.00 0.00 0.00 59 1013.8
20260901174932 34 324 1.6 6.4 0.00 0.00 0.00 62 1013.7
20260901173631 34 319 3.2 8.0 0.00 0.00 0.00 62 1013.7
20260901173131 34 344 1.6 4.8 0.00 0.00 0.00 61 1013.7
20260901172631 34 321 3.2 6.4 0.00 0.00 0.00 60 1013.7
20260901172118 35 202 3.2 6.4 0.00 0.00 0.00 59 1013.7
20260901171858 34 275 3.2 6.4 0.00 0.00 0.00 61 1013.7
20260901171117 34 195 1.6 6.4 0.00 0.00 0.00 61 1013.7
20260901170616 34 28 3.2 6.4 0.00 0.00 0.00 61 1013.7
20260901170112 34 251 1.6 6.4 0.00 0.00 0.00 62 1013.8
20260901165607 35 343 3.2 6.4 0.00 0.00 0.00 62 1014.0
20260901165104 34 341 3.2 8.0 0.00 0.00 0.00 63 1014.1
20260901164602 34 142 1.6 8.0 0.00 0.00 0.00 62 1014.1
20260901164101 34 353 1.6 4.8 0.00 0.00 0.00 64 1014.2
20260901163839 33 296 3.2 4.8 0.00 0.00 0.00 65 1014.1
20260901163103 32 276 1.6 4.8 0.00 0.00 0.00 66 1014.2
20260901162837 33 276 1.6 9.7 0.00 0.00 0.00 64 1014.3
20260901162058 33 0 1.6 9.7 0.00 0.00 0.00 63 1014.2
20260901161558 34 231 1.6 8.0 0.00 0.00 0.00 63 1014.3
20260901161342 35 336 1.6 8.0 0.00 0.00 0.00 61 1014.4
20260901160559 35 302 1.6 4.8 0.00 0.00 0.00 62 1014.4
20260901160117 35 331 3.2 6.4 0.00 0.00 0.00 61 1014.5
20260901160110 35 340 1.6 6.4 0.00 0.00 0.00 61 1014.4
20260901155053 35 288 1.6 6.4 0.00 0.00 0.00 61 1014.5
20260901154555 34 1 3.2 8.0 0.00 0.00 0.00 61 1014.6
20260901154052 35 357 3.2 4.8 0.00 0.00 0.00 61 1014.7
20260901153831 35 272 3.2 4.8 0.00 0.00 0.00 63 1014.8
20260901153117 35 141 0.0 1.6 0.00 0.00 0.00 61 1014.8
20260901153109 34 157 0.0 1.6 0.00 0.00 0.00 65 1014.8
20260901152053 34 217 0.0 3.2 0.00 0.00 0.00 63 1014.9
20260901151554 34 193 1.6 3.2 0.00 0.00 0.00 63 1015.0
20260901151053 34 288 0.0 3.2 0.00 0.00 0.00 63 1015.0
20260901150552 34 268 1.6 4.8 0.00 0.00 0.00 64 1015.0
20260901150051 33 14 1.6 4.8 0.00 0.00 0.00 65 1014.9
20260901145552 33 337 0.0 0.0 0.00 0.00 0.00 65 1015.0
20260901145052 32 333 0.0 1.6 0.00 0.00 0.00 67 1015.0
20260901144552 32 344 0.0 1.6 0.00 0.00 0.00 68 1015.1
20260901144051 32 344 0.0 3.2 0.00 0.00 0.00 67 1015.1
20260901143552 33 340 0.0 3.2 0.00 0.00 0.00 64 1015.1
20260901143051 33 357 0.0 6.4 0.00 0.00 0.00 64 1015.1
20260901142551 33 357 3.2 6.4 0.00 0.00 0.00 64 1015.1
20260901142352 32 298 0.0 0.0 0.00 0.00 0.00 68 1015.1
20260901142348 33 305 0.0 4.8 0.00 0.00 0.00 68 1015.1
20260901141050 32 298 0.0 0.0 0.00 0.00 0.00 67 1015.1
20260901140551 32 259 0.0 0.0 0.00 0.00 0.00 66 1015.1
20260901140333 32 307 0.0 0.0 0.00 0.00 0.00 66 1015.0
20260901135829 32 203 0.0 0.0 0.00 0.00 0.00 67 1015.2
20260901135050 32 258 0.0 0.0 0.00 0.00 0.00 68 1015.1
20260901134829 32 258 0.0 0.0 0.00 0.00 0.00 70 1015.0
20260901134051 32 258 0.0 0.0 0.00 0.00 0.00 69 1015.1
20260901133551 32 16 0.0 0.0 0.00 0.00 0.00 72 1015.1
20260901133050 31 62 0.0 0.0 0.00 0.00 0.00 73 1015.1
20260901132827 31 62 0.0 0.0 0.00 0.00 0.00 75 1015.2
20260901132049 30 62 0.0 0.0 0.00 0.00 0.00 77 1015.1
20260901131550 30 62 0.0 0.0 0.00 0.00 0.00 77 1015.2
20260901131049 29 62 0.0 0.0 0.00 0.00 0.00 79 1015.3
20260901130550 30 62 0.0 0.0 0.00 0.00 0.00 79 1015.2
20260901130048 28 62 0.0 0.0 0.00 0.00 0.00 83 1015.4
20260901125548 25 62 0.0 0.0 0.00 0.00 0.00 96 1015.4
20260901125045 25 62 0.0 0.0 0.00 0.00 0.00 96 1015.4
20260901124827 25 62 0.0 0.0 0.00 0.00 0.00 96 1015.4